Location: Baix
(44.7118°N, 4.7648°E)
Time: 10:52:18
(UTC+00:00)

Tiros 1 despin weight - Pass Details

Date: 30 November 2020
Orbit: 594 x 641 km, 48.2° (Epoch: 17 January)

Event Time Altitude Azimuth Distance (km) Brightness Sun altitude
Rises 18:13:14 0° 282° (WNW) 2,937 ? -22.7°
Reaches altitude 10° 18:16:35 10° 258° (WSW) 2,017 ? -23.3°
Maximum altitude 18:18:57 14° 227° (SW) 1,760 ? -23.7°
Drops below altitude 10° 18:21:18 10° 196° (SSW) 1,998 ? -24.1°
Sets 18:24:37 0° 171° (S) 2,889 ? -24.7°
